Location: Berua Church
(35.0423°N, 88.5987°W)
Time: 09:43:20
(UTC+00:00)

Cosmos 2237 Rocket - Pass Details

Date: 08 December 2019
Orbit: 836 x 849 km, 71.0° (Epoch: 26 January)

Event Time Altitude Azimuth Distance (km) Brightness Sun altitude
Rises 23:00:39 0° 188° (S) 3,394 5.9 -4.2°
Reaches altitude 10° 23:03:07 10° 184° (S) 2,463 5.1 -4.6°
Maximum altitude 23:08:39 57° 107° (ESE) 991 2.4 -5.6°
Drops below altitude 10° 23:14:12 10° 30° (NNE) 2,476 4.2 -6.7°
Sets 23:16:41 0° 26° (NNE) 3,414 4.9 -7.2°
Enters shadow 23:16:49 - 26° (NNE) 3,461 4.9 -7.2°
